Location: Melita
(38.4566°N, 122.6369°W)
Time: 12:58:30
(UTC+00:00)

Cosmos 2327 Rocket - Pass Details

Date: 24 January 2020
Orbit: 943 x 1009 km, 83.0° (Epoch: 16 February)

Event Time Altitude Azimuth Distance (km) Brightness Sun altitude
Exits shadow 12:46:15 76° 156° (SSE) 992 4.4 -30.4°
Drops below altitude 10° 12:51:49 10° 173° (S) 2,668 6.9 -29.3°
Sets 12:54:17 0° 174° (S) 3,603 7.6 -28.9°
